CAPE
1548 894 967 957 1058 1605 1837 2111 2070 1706 1617 1708 1671 1654 1620 1558 1524 1576 1520 1339 1181 1035 850 519 418 188 10 0 0 0 0 0 0 0 0 650 490 469 766 603 646 656 716
1390 847 1027 965 1016 1632 1895 2064 2080 1798 1745 1738 1755 1727 1576 1465 1497 1291 1188 1186 1009 813 519 211 10 0 0 0 0 0 0 0 0 0 164 63 61 398 562 804 893 835 798
1362 948 1091 918 1036 1603 1848 2071 2115 1982 1875 1852 1778 1537 1350 1315 1114 929 905 791 625 359 55 0 0 0 0 0 0 0 0 0 0 0 0 0 0 71 302 511 693 827 751
1475 893 1248 866 995 1406 1766 1980 2170 2237 1981 1807 1522 1380 1148 1005 882 762 577 397 201 0 0 0 0 0 0 0 0 0 0 0 0 0 0 0 0 4 29 120 179 241 229
1550 1036 1135 874 840 1191 1566 1843 1960 1959 1760 1486 1290 1137 979 864 690 453 264 57 0 0 0 0 0 0 0 0 0 0 0 0 0 0 0 0 0 6 6 2 1 2 3
1574 1341 868 880 685 830 1312 1583 1647 1530 1310 1138 1068 1001 838 700 428 168 7 0 0 0 0 0 0 0 0 0 0 0 0 0 0 0 0 0 0 9 6 6 2 1 2
1661 1598 845 1028 915 753 823 1069 1108 985 907 923 876 725 633 399 116 0 0 0 0 0 0 0 0 0 0 0 0 0 0 0 0 0 0 0 1 6 9 7 6 5 4
1648 1475 929 1015 1098 963 821 813 772 765 754 679 619 499 285 61 0 0 0 0 0 0 0 0 0 0 0 0 0 0 0 0 0 0 0 0 6 7 5 4 3 5 3
1746 1399 1064 1082 1051 937 845 819 749 640 602 537 364 147 0 0 0 0 0 0 0 0 0 0 0 0 0 0 0 0 0 0 0 0 0 0 9 8 10 9 8 5 5
1735 1540 1138 1141 1015 894 665 639 578 504 353 182 27 0 0 0 0 0 0 0 0 0 0 0 0 0 0 0 0 0 0 0 0 0 0 7 5 12 11 4 1 3 7
1823 1518 1265 1106 989 801 625 476 349 210 31 0 0 0 0 0 0 0 0 0 0 0 0 0 0 0 0 0 0 0 0 0 0 0 1 6 17 25 18 8 6 3 4
1681 1496 1333 1106 864 527 309 203 37 0 0 0 0 0 0 0 0 0 0 0 0 0 0 0 0 0 0 0 0 0 0 0 0 0 12 23 24 10 9 5 5 2 1
1346 1427 1174 844 507 267 78 13 1 0 0 0 0 0 0 0 0 0 0 0 0 0 0 0 0 0 0 0 0 0 0 0 0 0 2 9 15 11 9 7 7 3 3
1126 1240 1061 712 388 146 13 1 0 0 0 0 0 0 0 0 0 0 0 0 0 0 0 0 0 0 0 0 0 0 0 0 0 0 0 0 1 4 6 3 3 5 3
1117 1247 834 616 384 64 11 0 0 0 0 0 0 0 0 0 0 0 0 0 0 0 0 0 0 0 0 0 0 0 0 0 0 0 0 0 0 1 2 2 8 12 8
971 956 1027 342 255 33 2 0 0 0 0 0 0 0 0 0 0 0 0 0 0 0 0 0 0 0 0 0 0 0 0 0 0 0 0 0 0 0 2 5 3 5 2
1244 886 1117 444 190 57 1 0 0 0 0 0 0 0 0 0 0 0 0 0 0 0 0 0 0 0 0 0 0 0 0 0 0 0 0 0 0 0 0 2 5 4 5
1166 1028 932 526 253 166 2 0 0 0 0 0 0 0 0 0 0 0 0 0 0 0 0 0 0 0 0 0 0 0 0 0 0 0 0 0 0 0 0 0 1 3 3
968 1038 740 444 187 109 48 6 0 0 0 0 0 0 0 0 0 0 0 0 0 0 0 0 0 0 0 0 0 0 0 0 0 0 0 0 0 0 0 0 0 0 0
392 942 665 323 115 32 39 19 0 0 0 0 0 0 0 0 0 0 0 0 0 0 0 0 0 0 0 0 0 0 0 0 0 0 0 0 0 0 0 0 0 0 0
126 886 621 221 14 1 5 0 0 0 0 0 0 0 0 0 0 0 0 0 0 0 0 0 0 0 0 0 0 0 0 0 0 0 0 0 0 0 0 0 0 0 0
261 701 499 183 1 0 1 0 0 0 0 0 0 0 0 0 0 0 0 0 0 0 0 0 0 0 0 0 0 0 0 0 0 0 0 0 0 0 0 0 0 0 0
137 763 245 77 1 0 4 0 0 0 0 0 0 0 0 0 0 0 0 0 0 0 0 0 0 0 0 0 0 0 0 0 0 0 0 0 0 0 0 0 0 0 0
35 798 157 5 1 0 0 0 0 0 0 0 0 0 0 0 0 0 0 0 0 0 0 0 0 0 0 0 0 0 0 0 0 0 0 0 0 0 0 0 0 0 0
79 675 207 0 1 0 0 0 0 0 0 0 0 0 0 0 0 0 0 0 0 0 0 0 0 0 0 0 0 0 0 0 0 0 0 0 0 0 0 0 0 0 0
341 972 222 19 1 0 0 0 0 0 0 0 0 0 0 0 0 0 0 0 0 0 0 0 0 0 0 0 0 0 0 0 0 0 0 0 0 0 0 0 0 0 0
CIN
-357 -498 -455 -425 -370 -221 -184 -124 -119 -179 -181 -148 -140 -138 -132 -119 -106 -98 -99 -114 -120 -119 -129 -177 -189 -260 -121 -0 -0 -0 -0 -0 -0 -0 -0 -7 -21 -26 -11 -19 -4 -16 -8
-412 -505 -432 -413 -374 -182 -132 -88 -77 -110 -114 -120 -111 -100 -112 -125 -104 -128 -137 -130 -135 -155 -212 -296 -83 -0 -0 -0 -0 -0 -0 -0 -0 -0 -21 -91 -104 -14 -7 -1 -2 -2 -3
-391 -455 -399 -410 -363 -172 -119 -52 -46 -58 -69 -71 -80 -99 -120 -119 -144 -171 -172 -188 -212 -281 -407 -0 -0 -0 -0 -0 -0 -0 -0 -0 -0 -0 -0 -4 -0 -121 -21 -3 -0 -0 -0
-328 -447 -342 -406 -350 -210 -117 -45 -16 -6 -28 -48 -64 -74 -116 -135 -159 -170 -220 -283 -354 -0 -0 -0 -0 -0 -0 -0 -0 -0 -0 -0 -0 -0 -0 -0 -0 -0 -160 -126 -82 -49 -49
-269 -365 -338 -377 -361 -237 -107 -34 -6 -3 -23 -47 -57 -78 -106 -123 -146 -214 -298 -404 -0 -0 -0 -0 -0 -0 -0 -0 -0 -0 -0 -0 -0 -0 -0 -0 -0 -0 -0 -0 -0 -0 -0
-245 -273 -368 -351 -363 -292 -120 -46 -28 -27 -48 -69 -69 -85 -106 -131 -188 -274 -302 -0 -0 -0 -0 -0 -0 -0 -0 -0 -0 -0 -0 -0 -0 -0 -0 -0 -0 -0 -0 -0 -0 -0 -0
-211 -211 -328 -265 -257 -251 -193 -98 -85 -72 -86 -65 -58 -92 -127 -172 -258 -0 -0 -0 -0 -0 -0 -0 -0 -0 -0 -0 -0 -0 -0 -0 -0 -0 -0 -0 -1 -0 -0 -0 -0 -0 -0
-191 -221 -289 -217 -163 -146 -139 -117 -117 -85 -74 -91 -97 -113 -166 -265 -0 -0 -0 -0 -0 -0 -0 -0 -0 -0 -0 -0 -0 -0 -0 -0 -0 -0 -0 -0 -1 -1 -0 -0 -0 -0 -0
-136 -185 -239 -172 -130 -114 -115 -109 -111 -124 -118 -116 -151 -209 -0 -0 -0 -0 -0 -0 -0 -0 -0 -0 -0 -0 -0 -0 -0 -0 -0 -0 -0 -0 -0 -0 -0 -0 -1 -0 -0 -0 -0
-108 -120 -182 -142 -124 -120 -142 -132 -135 -150 -160 -196 -261 -0 -0 -0 -0 -0 -0 -0 -0 -0 -0 -0 -0 -0 -0 -0 -0 -0 -0 -0 -0 -0 -0 -5 -0 -0 -1 -2 -0 -0 -0
-74 -107 -149 -155 -127 -141 -149 -146 -167 -203 -261 -0 -0 -0 -0 -0 -0 -0 -0 -0 -0 -0 -0 -0 -0 -0 -0 -0 -0 -0 -0 -0 -0 -0 -4 -0 -2 -0 -0 -0 -0 -0 -0
-74 -85 -122 -151 -163 -197 -261 -236 -311 -0 -0 -0 -0 -0 -0 -0 -0 -0 -0 -0 -0 -0 -0 -0 -0 -0 -0 -0 -0 -0 -0 -0 -0 -0 -9 -2 -2 -1 -0 -2 -0 -0 -0
-136 -107 -145 -179 -218 -269 -357 -311 -0 -0 -0 -0 -0 -0 -0 -0 -0 -0 -0 -0 -0 -0 -0 -0 -0 -0 -0 -0 -0 -0 -0 -0 -0 -0 -18 -2 -2 -1 -1 -0 -1 -0 -0
-124 -136 -191 -239 -269 -330 -428 -0 -0 -0 -0 -0 -0 -0 -0 -0 -0 -0 -0 -0 -0 -0 -0 -0 -0 -0 -0 -0 -0 -0 -0 -0 -0 -0 -0 -0 -4 -0 -1 -1 -1 -0 -0
-110 -88 -183 -265 -305 -399 -429 -0 -0 -0 -0 -0 -0 -0 -0 -0 -0 -0 -0 -0 -0 -0 -0 -0 -0 -0 -0 -0 -0 -0 -0 -0 -0 -0 -0 -0 -0 -0 -0 -0 -0 -0 -0
-186 -151 -152 -285 -314 -405 -151 -0 -0 -0 -0 -0 -0 -0 -0 -0 -0 -0 -0 -0 -0 -0 -0 -0 -0 -0 -0 -0 -0 -0 -0 -0 -0 -0 -0 -0 -0 -0 -0 -0 -0 -2 -1
-181 -233 -137 -273 -315 -364 -0 -0 -0 -0 -0 -0 -0 -0 -0 -0 -0 -0 -0 -0 -0 -0 -0 -0 -0 -0 -0 -0 -0 -0 -0 -0 -0 -0 -0 -0 -0 -0 -0 -0 -0 -0 -0
-99 -280 -231 -284 -317 -312 -71 -0 -0 -0 -0 -0 -0 -0 -0 -0 -0 -0 -0 -0 -0 -0 -0 -0 -0 -0 -0 -0 -0 -0 -0 -0 -0 -0 -0 -0 -0 -0 -0 -0 -0 -0 -0
-56 -282 -342 -365 -422 -394 -352 -291 -0 -0 -0 -0 -0 -0 -0 -0 -0 -0 -0 -0 -0 -0 -0 -0 -0 -0 -0 -0 -0 -0 -0 -0 -0 -0 -0 -0 -0 -0 -0 -0 -0 -0 -0
-66 -272 -422 -388 -478 -555 -430 -414 -0 -0 -0 -0 -0 -0 -0 -0 -0 -0 -0 -0 -0 -0 -0 -0 -0 -0 -0 -0 -0 -0 -0 -0 -0 -0 -0 -0 -0 -0 -0 -0 -0 -0 -0
-107 -215 -505 -531 -530 -0 -2 -0 -0 -0 -0 -0 -0 -0 -0 -0 -0 -0 -0 -0 -0 -0 -0 -0 -0 -0 -0 -0 -0 -0 -0 -0 -0 -0 -0 -0 -0 -0 -0 -0 -0 -0 -0
-89 -253 -482 -644 -0 -0 -1 -0 -0 -0 -0 -0 -0 -0 -0 -0 -0 -0 -0 -0 -0 -0 -0 -0 -0 -0 -0 -0 -0 -0 -0 -0 -0 -0 -0 -0 -0 -0 -0 -0 -0 -0 -0
-165 -302 -516 -692 -0 -0 -1 -0 -0 -0 -0 -0 -0 -0 -0 -0 -0 -0 -0 -0 -0 -0 -0 -0 -0 -0 -0 -0 -0 -0 -0 -0 -0 -0 -0 -0 -0 -0 -0 -0 -0 -0 -0
-276 -321 -592 -555 -0 -0 -0 -0 -0 -0 -0 -0 -0 -0 -0 -0 -0 -0 -0 -0 -0 -0 -0 -0 -0 -0 -0 -0 -0 -0 -0 -0 -0 -0 -0 -0 -0 -0 -0 -0 -0 -0 -0
-213 -276 -622 -0 -0 -0 -0 -0 -0 -0 -0 -0 -0 -0 -0 -0 -0 -0 -0 -0 -0 -0 -0 -0 -0 -0 -0 -0 -0 -0 -0 -0 -0 -0 -0 -0 -0 -0 -0 -0 -0 -0 -0
-89 -152 -521 -722 -0 -0 -0 -0 -0 -0 -0 -0 -0 -0 -0 -0 -0 -0 -0 -0 -0 -0 -0 -0 -0 -0 -0 -0 -0 -0 -0 -0 -0 -0 -0 -0 -0 -0 -0 -0 -0 -0 -0
Wind_Speed
9 9 8 6 6 5 4 5 7 11 11 11 12 12 13 13 14 14 14 14 15 16 17 18 19 19 20 20 20 20 20 20 20 19 19 19 19 20 19 19 18 18 19
8 8 9 8 8 7 7 7 9 10 10 10 11 10 11 11 13 13 13 13 13 14 16 17 18 18 19 19 20 20 20 20 19 18 17 20 21 20 19 19 19 19 19
7 8 8 8 9 8 8 8 9 8 8 8 9 9 9 10 10 10 10 11 12 13 15 16 17 17 18 19 19 20 20 19 18 18 16 19 21 20 20 19 19 19 20
7 7 6 8 8 8 8 7 8 8 7 7 7 7 7 7 8 8 8 10 11 12 14 15 17 17 17 18 19 20 19 19 18 17 18 18 21 20 20 20 19 19 20
5 6 6 8 8 7 6 6 6 6 7 6 6 5 4 5 6 6 7 9 10 11 13 15 16 17 17 18 18 19 18 16 16 19 19 20 21 20 20 20 19 20 20
4 4 5 6 6 6 6 6 6 6 6 6 5 4 2 3 4 5 6 8 9 11 13 14 15 16 17 17 17 17 16 17 17 21 21 21 21 21 21 21 20 20 20
4 4 6 6 6 7 8 7 7 8 7 5 5 1 1 2 3 4 5 6 8 10 12 13 14 15 16 17 17 17 17 17 20 20 21 21 21 21 21 21 21 21 21
4 4 5 6 7 8 9 8 8 8 6 4 3 1 0 1 2 4 5 6 7 9 10 11 12 14 15 16 16 16 17 19 19 20 21 20 21 21 21 22 22 21 22
3 4 6 7 7 7 8 8 8 6 5 5 3 2 1 1 2 3 4 5 6 8 9 10 11 12 14 15 15 15 17 18 19 20 21 20 21 22 22 22 22 22 22
3 3 5 6 5 6 7 9 8 7 6 5 4 4 2 2 2 2 3 4 5 7 8 9 10 11 12 14 14 14 17 18 19 20 20 20 21 22 22 22 23 23 23
4 5 6 6 7 7 7 7 7 7 6 6 5 4 3 1 1 2 2 3 4 5 7 7 8 9 11 12 13 14 16 17 19 20 19 20 21 22 22 23 24 24 24
7 7 7 7 8 7 6 8 6 6 7 7 6 6 5 3 2 0 0 1 3 4 5 5 6 7 10 12 12 13 14 17 19 20 20 19 20 22 22 23 24 24 24
9 8 8 7 8 9 8 8 7 7 8 9 8 8 6 4 3 2 2 2 2 2 4 4 5 6 8 8 12 12 12 15 16 18 19 20 21 22 22 23 23 23 23
11 10 10 10 11 10 10 9 8 8 8 9 9 10 7 6 4 3 3 3 2 0 1 2 6 8 10 10 10 12 12 13 14 15 18 19 21 22 22 22 22 22 22
13 13 12 12 13 12 12 10 9 9 9 9 10 12 7 6 6 4 4 3 2 2 1 2 5 5 6 8 9 10 12 12 14 14 16 18 20 21 21 21 22 21 22
16 16 14 14 14 13 13 12 11 10 10 11 11 13 9 8 7 6 5 4 4 3 2 2 2 3 4 6 7 8 10 10 12 13 14 17 19 20 20 20 20 21 21
19 18 17 17 17 17 15 14 13 12 12 12 11 14 11 10 10 8 7 5 4 3 3 1 1 2 4 5 7 8 9 11 9 11 12 14 17 19 19 19 19 20 21
18 20 20 18 20 18 17 15 14 14 13 13 12 13 14 12 11 9 8 7 6 5 4 4 2 2 2 3 4 6 7 9 11 12 11 11 14 16 18 18 19 19 20
20 20 21 21 22 21 18 17 16 15 14 13 12 13 15 13 12 10 10 8 7 7 6 5 4 3 2 2 4 6 7 8 9 12 13 14 15 13 15 15 17 19 20
21 22 20 21 22 21 20 17 18 17 17 15 15 14 16 15 14 12 11 10 9 8 7 7 6 4 3 2 3 5 7 7 8 9 9 12 14 16 12 13 15 18 19
21 23 22 22 23 21 22 21 21 22 20 18 17 16 17 17 16 15 13 11 11 10 9 8 6 6 3 2 2 5 8 8 8 7 7 9 13 15 16 16 12 14 17
18 23 23 22 23 25 24 23 22 22 22 20 19 18 18 18 17 17 14 14 13 11 10 10 8 6 4 4 4 4 11 13 12 11 10 12 11 10 14 16 16 16 15
23 23 24 23 23 24 25 24 22 21 21 22 21 20 20 19 19 19 16 15 15 13 13 12 11 10 9 8 7 9 14 16 8 13 10 9 10 10 12 14 15 15 16
26 25 25 24 24 24 24 25 27 27 27 25 24 21 21 20 20 20 18 17 16 14 14 13 12 11 10 12 9 14 17 9 13 13 12 9 10 10 11 12 14 15 14
25 25 24 24 24 24 26 27 28 28 27 25 24 23 22 22 21 21 20 18 18 16 15 15 14 13 12 12 11 11 13 12 9 12 11 10 10 8 11 14 14 13 15
22 23 23 22 23 24 25 27 28 30 28 27 26 26 25 23 23 23 21 20 19 18 17 16 15 14 12 12 12 11 12 13 12 11 11 8 10 8 10 11 13 13 13
Wind_Direction
33 52 71 90 99 106 133 131 125 125 118 108 98 91 82 72 64 60 57 51 46 46 46 48 43 40 33 25 16 8 6 3 4 7 9 5 355 349 344 347 5 2 357
54 65 85 96 107 108 114 122 127 129 122 113 105 94 84 75 72 65 57 51 43 42 45 46 44 37 28 21 12 4 1 5 12 20 23 10 1 353 351 350 356 357 355
51 72 94 105 112 114 114 121 129 134 127 118 108 98 85 78 67 52 44 41 38 37 44 46 42 34 23 14 11 7 7 10 14 16 29 11 3 355 355 354 354 359 358
59 83 92 113 120 122 120 122 131 134 132 123 112 98 83 66 59 44 35 33 33 38 44 43 43 35 21 15 17 16 15 13 352 317 354 9 5 357 356 358 355 355 358
67 89 97 118 128 132 133 135 137 138 136 129 117 102 76 56 44 33 28 31 33 37 40 41 38 30 20 15 13 11 0 330 318 11 9 4 6 1 360 359 360 359 358
79 87 109 121 136 144 146 149 146 147 146 137 128 113 68 47 33 18 25 31 31 36 37 37 29 21 15 11 9 3 345 321 326 30 21 10 9 11 9 7 4 2 359
91 78 112 120 134 146 146 153 147 148 152 147 132 134 82 40 27 27 34 31 28 32 34 28 19 18 16 13 14 13 357 336 24 24 19 13 10 11 11 10 7 5 5
106 105 117 127 129 138 148 155 150 152 155 159 168 187 248 25 55 59 42 34 31 33 32 23 16 17 15 11 15 15 0 0 27 28 22 16 16 14 10 5 4 6 4
124 118 128 129 133 144 146 155 156 166 171 169 187 203 217 101 84 66 47 41 40 38 33 24 17 20 17 16 17 16 10 9 21 21 25 23 19 12 8 7 6 3 2
150 151 140 139 143 147 151 159 166 173 182 191 191 202 191 147 109 71 55 41 36 36 27 17 15 19 18 22 25 17 8 11 29 24 25 24 20 15 16 13 7 1 357
194 169 156 154 152 154 155 165 170 176 187 195 200 195 181 200 146 99 35 27 28 25 21 16 19 27 30 27 21 14 6 21 22 24 25 22 22 22 17 12 8 4 2
207 185 176 167 162 161 167 169 200 196 206 215 220 203 193 199 205 207 331 24 34 27 19 14 23 38 36 32 25 18 19 26 25 20 20 25 24 17 15 13 10 7 4
210 200 189 183 175 170 171 180 200 216 222 231 227 215 220 213 233 257 277 301 319 351 347 357 359 6 1 7 5 10 26 28 24 18 18 20 19 16 11 10 7 7 6
211 210 195 186 181 179 178 186 199 207 207 221 225 205 229 228 214 232 252 256 269 291 11 0 337 338 342 356 2 359 18 24 24 17 13 17 16 15 13 10 8 8 5
212 213 206 197 189 188 187 189 198 205 208 211 203 193 219 211 208 220 223 215 226 196 231 317 331 347 356 1 358 355 8 18 23 16 11 13 11 11 9 7 6 8 4
212 215 215 208 200 196 196 197 203 211 207 207 208 200 215 225 217 223 212 219 216 230 249 310 329 357 0 1 3 3 1 9 14 19 14 9 11 10 9 9 9 6 3
210 209 211 211 208 206 205 206 206 206 205 210 210 208 223 232 219 225 226 227 231 223 224 230 255 336 348 351 353 356 356 0 17 19 15 14 14 12 9 7 6 3 3
214 207 209 213 210 215 215 217 217 210 208 208 214 215 218 228 213 225 226 229 219 215 218 214 232 263 319 340 347 347 352 355 356 2 7 11 12 12 9 5 4 1 359
216 210 209 210 208 211 216 220 221 219 220 218 221 220 214 222 212 222 223 228 223 227 231 221 222 221 249 304 332 344 344 345 349 348 344 349 1 8 5 3 3 3 2
216 210 210 213 212 213 217 223 225 232 223 222 224 221 212 218 214 222 226 226 226 226 219 211 215 219 229 249 326 335 338 339 349 352 354 354 353 352 356 359 1 0 6
220 213 210 213 217 220 216 218 219 226 223 226 229 221 214 219 219 221 230 224 227 221 218 214 217 201 214 208 343 347 346 344 345 4 15 3 354 348 332 338 359 3 7
236 222 216 218 220 221 231 227 225 224 224 230 230 225 217 217 219 224 228 225 225 229 221 223 223 233 227 198 275 332 310 316 324 331 344 340 350 352 336 339 337 344 2
237 227 223 222 227 225 231 239 236 235 234 231 226 225 217 217 218 222 228 226 226 231 225 222 216 225 221 222 204 316 301 301 301 314 323 332 331 335 336 336 339 347 356
233 227 227 224 228 230 230 235 232 231 231 236 232 231 227 224 223 225 231 230 229 234 229 228 223 232 223 224 236 298 306 316 304 306 304 315 321 328 330 336 335 335 353
234 232 230 228 231 230 232 235 234 237 241 239 239 236 233 234 232 229 230 228 227 236 231 229 226 229 232 234 256 269 289 304 311 306 298 301 309 320 321 321 327 337 344
230 229 232 232 234 232 231 237 236 238 239 241 237 237 238 238 237 234 234 235 231 236 231 230 232 238 241 254 263 256 267 284 290 297 302 284 293 306 313 320 323 331 339